Retour au catalogue

USA 200

ActifMilitaireHEO
NORAD 32706·PAYLOAD·🇺🇸 United States

Lancé Mar 13, 2008 depuis Vandenberg Space Force Base

Loading…

Prochains Passages (prochaines 24 heures)

TLE

FraisSource: Mike McCants

Époque: Sep 14, 2026, 21:41 UTC

1 32706U 08010A   26257.90368145  .00000228  00000-0  00000-0 0    00
2 32706  63.4470 301.9510 7144328 268.9662  16.1203  2.00636144  5296

Suivez USA 200 en temps réel avec AllMySat

Download on the App Store